Weather in Novyy Mir

Russia / Khabarovsk Krai     50°27′22″N   136°57′50″E
temp.,
°C
wind,
m/s
gust,
m/s
humid.,
%
clouds,
%
prec.,
mm/h
press.,
hPa
HPBL,
m
13 august, sat
sat1301:00+13n2291100 0.0 100533
04:00+13n228775 0.0 100555
07:00+13nne1286100 0.0 100685
10:00+14ne008680 0.3 1007115
13:00+19se116892 0.0 1006661
16:00+21s2265100 0.0 1005922
19:00+19se117831 0.0 100524
22:00+15nnw118912 0.0 100611
14 august, sun
sun1401:00+14n229317 0.0 100612
04:00+14nne2294100 0.0 100624
07:00+14nne2391100 0.0 100678
10:00+16n1287100 0.6 1006229
13:00+17nne229060 1.4 1006292
16:00+22e21669 1.4 1004890
19:00+20e11775 0.0 100421
22:00+16n118827 0.0 100511
15 august, mon
mon1501:00+14nne1191100 0.0 100511
04:00+14nne2293100 0.0 100513
07:00+15n229293 0.0 100580
10:00+20ne23720 0.0 1005590
13:00+24ne12570 0.0 10031259
16:00+25ese12510 0.0 10021471
19:00+23se11690 0.0 100111
22:00+17nnw12830 0.0 100211
16 august, tue
tue1601:00+16n228944 0.0 100323
04:00+15n33932 0.0 100250
07:00+16n25900 0.0 1003141
10:00+21nne45690 0.0 1003571
13:00+25nne34540 0.0 10011223
16:00+27ne23480 0.0 10001537
19:00+24n22690 0.0 100020
22:00+19nnw22810 0.0 100215
17 august, wed
wed1701:00+17nnw11862 0.0 100211
04:00+16se00901 0.0 100311
07:00+17s12890 0.0 100488
10:00+22s34763 0.0 1005542
13:00+26s55631 0.0 1004860
16:00+26s5562100 0.0 1003982
19:00+23s4879100 0.0 1004317
22:00+19s34943 0.0 100573